Back to catalog

STARLINK-35359

AliveCommunicationsSSO
NORAD 65670·PAYLOAD·🇺🇸 United States

Launched Sep 19, 2025 from Vandenberg Space Force Base

Loading…

Next Passes (next 24 hours)

TLE

FreshSource: CelesTrak SupGP

Epoch: Sep 14, 2026, 14:48 UTC

1 65670C 25211U   26257.61715278 -.00004155  00000+0 -12898-3 0  2578
2 65670  97.2833 297.9850 0000926 104.3061 309.6286 15.33443875    18

Track STARLINK-35359 in real time with AllMySat

Download on the App Store